Weather History for Minneapolis Flying Cloud, MN

Change the Weather History Date:

Thursday, December 29, 2011

  Actual Average Record
Temperature  
Mean Temperature 32 °F -  
Max Temperature 37 °F 24 °F 54 °F (1999)
Min Temperature 28 °F 9 °F -14 °F (2013)
Degree Days  
Heating Degree Days 32    
Moisture  
Dew Point 27 °F    
Average Humidity 77    
Maximum Humidity 87    
Minimum Humidity 65    
Precipitation  
Precipitation 0.00 in - - ()
Sea Level Pressure  
Sea Level Pressure 29.58 in    
Wind  
Wind Speed 8 mph (NW)    
Max Wind Speed 13 mph    
Max Gust Speed 17 mph    
Visibility 9 miles    
Events      
Averages and records for this station are not official NWS values.
T = Trace of Precipitation, MM = Missing Value Source: NWS Daily Summary

Daily Weather History Graph

Daily Weather History Graph

Search for Another Location

Airport:

Trip Planner

Search our weather history database for the weather conditions in past years. The results will help you decide how hot, cold, wet, or windy it might be!

Date:

Astronomy

Dec. 29, 2011 Rise Set
Actual Time 7:51 AM CST 4:40 PM CST
Civil Twilight 7:17 AM CST 5:14 PM CST
Nautical Twilight 6:40 AM CST 5:51 PM CST
Astronomical Twilight 6:04 AM CST 6:26 PM CST
Moon 10:31 AM CST (12/29) 10:33 PM CST (12/29)
Length of Visible Light 9h 56m
Length of Day
8h 49m
Waxing Crescent, 27% of the Moon is Illuminated
Dec 29
Waxing Crescent
Jan 1
First Quarter
Jan 9
Full
Jan 16
Last Quarter
Jan 23
New

Hourly Weather History & Observations

Time (CST) Temp. Windchill Dew Point Humidity Pressure Visibility Wind Dir Wind Speed Gust Speed Precip Events Conditions
12:53 AM 36.0 °F 28.0 °F 30.0 °F 79% 29.47 in 10.0 mi SSE 11.5 mph - N/A   Overcast
1:53 AM 36.0 °F 29.6 °F 28.0 °F 73% 29.45 in 10.0 mi South 8.1 mph - N/A   Mostly Cloudy
2:53 AM 34.0 °F 28.0 °F 27.0 °F 75% 29.43 in 10.0 mi South 6.9 mph - N/A   Clear
3:53 AM 35.1 °F 30.1 °F 26.1 °F 70% 29.42 in 10.0 mi WSW 5.8 mph - N/A   Clear
4:53 AM 36.0 °F 28.5 °F 27.0 °F 70% 29.43 in 10.0 mi WNW 10.4 mph - N/A   Scattered Clouds
5:53 AM 35.1 °F 26.4 °F 27.0 °F 72% 29.47 in 10.0 mi WNW 12.7 mph - N/A   Partly Cloudy
6:53 AM 33.1 °F 24.9 °F 27.0 °F 78% 29.51 in 10.0 mi NNW 10.4 mph - N/A   Clear
7:53 AM 32.0 °F 24.2 °F 28.0 °F 85% 29.54 in 10.0 mi North 9.2 mph - N/A   Mostly Cloudy
8:23 AM 32.0 °F 24.2 °F 28.4 °F 87% 29.54 in 9.0 mi NW 9.2 mph - N/A   Overcast
9:53 AM 33.1 °F 26.1 °F 28.9 °F 85% 29.62 in 7.0 mi North 8.1 mph 17.3 mph N/A   Overcast
10:53 AM 33.1 °F 25.5 °F 28.9 °F 85% 29.63 in 6.0 mi NNW 9.2 mph 17.3 mph N/A   Overcast
11:09 AM 33.8 °F 27.7 °F 28.4 °F 81% 29.61 in 7.0 mi NNW 6.9 mph - N/A   Overcast
11:53 AM 35.1 °F 30.1 °F 28.0 °F 76% 29.62 in 9.0 mi NNW 5.8 mph - N/A   Overcast
12:49 PM 35.6 °F 29.2 °F 28.4 °F 75% 29.61 in 10.0 mi WNW 8.1 mph - N/A   Overcast
12:53 PM 35.1 °F 30.1 °F 27.0 °F 72% 29.64 in 10.0 mi WNW 5.8 mph - N/A   Overcast
1:53 PM 35.1 °F - 26.1 °F 70% 29.62 in 9.0 mi Calm Calm - N/A   Overcast
2:53 PM 37.0 °F 34.5 °F 26.1 °F 65% 29.62 in 10.0 mi NNW 3.5 mph - N/A   Clear
3:53 PM 34.0 °F - 25.0 °F 70% 29.64 in 10.0 mi Calm Calm - N/A   Clear
4:53 PM 33.1 °F 30.0 °F 25.0 °F 72% 29.65 in 10.0 mi East 3.5 mph - N/A   Clear
5:53 PM 30.9 °F 26.2 °F 25.0 °F 79% 29.66 in 9.0 mi SSE 4.6 mph - N/A   Clear
6:53 PM 30.9 °F 27.5 °F 25.0 °F 79% 29.66 in 9.0 mi SSE 3.5 mph - N/A   Clear
7:53 PM 30.0 °F - 25.0 °F 82% 29.67 in 9.0 mi Calm Calm - N/A   Clear
8:53 PM 28.0 °F 24.2 °F 24.1 °F 85% 29.67 in 8.0 mi ESE 3.5 mph - N/A   Clear
11:53 PM 28.9 °F 23.9 °F 25.0 °F 85% 29.64 in 6.0 mi East 4.6 mph - N/A   Overcast